Location: Newark
(48.0000°N, 67.0000°E)
Time: 17:28:23
(UTC+00:00)

Tiros 1 despin weight - All Passes

Search period start: 28 February 2020 00:00
Search period end: 09 March 2020 00:00
Orbit: 594 x 642 km, 48.2° (Epoch: 27 February)

Date Brightness Start Highest point End Pass type
(mag) Time Alt. Az. Time Alt. Az. Time Alt. Az.
28 Feb - 00:38:00 10° WSW 00:40:10 13° SW 00:42:19 10° SSW visible
28 Feb - 16:28:27 10° SSE 16:30:44 14° SE 16:33:00 10° ESE night (unlit)
28 Feb - 18:07:12 10° SW 18:11:32 47° SSE 18:15:48 10° E night (unlit)
28 Feb - 19:48:27 10° W 19:52:57 89° NNE 19:57:24 10° E night (unlit)
28 Feb - 21:30:05 10° W 21:34:32 78° SSW 21:38:57 10° ESE night (unlit)
28 Feb - 23:11:51 10° W 23:15:43 30° SSW 23:19:36 10° SSE visible
29 Feb - 16:43:19 10° SSW 16:46:54 23° SE 16:50:28 10° E night (unlit)
29 Feb - 18:23:30 10° WSW 18:27:59 67° SSE 18:32:24 10° E night (unlit)
29 Feb - 20:05:02 10° W 20:09:31 86° N 20:13:58 10° E night (unlit)
29 Feb - 21:46:38 10° W 21:51:01 58° SSW 21:55:21 10° ESE night (unlit)
29 Feb - 23:28:53 10° W 23:31:57 19° SW 23:35:02 10° S visible
01 Mar - 16:59:01 10° SW 17:03:11 37° SSE 17:07:19 10° E night (unlit)
01 Mar - 18:39:58 10° WSW 18:44:30 84° S 18:48:57 10° E night (unlit)
01 Mar - 20:21:36 10° W 20:26:06 86° S 20:30:32 10° E night (unlit)
01 Mar - 22:03:16 10° W 22:07:25 39° SSW 22:11:32 10° SE night (unlit)
01 Mar - 23:47:30 10° SW 23:48:04 10° SW 23:48:38 10° SW night (unlit)
02 Mar - 15:35:38 10° S 15:38:39 18° SE 15:41:39 10° E visible
02 Mar - 17:15:08 10° SW 17:19:35 55° SSE 17:23:57 10° E night (unlit)
02 Mar - 18:56:32 10° W 19:01:04 87° N 19:05:31 10° E night (unlit)
02 Mar - 20:38:10 10° W 20:42:37 70° SSW 20:47:01 10° ESE night (unlit)
02 Mar - 22:20:05 10° W 22:23:43 25° SW 22:27:19 10° SSE night (unlit)
03 Mar - 15:50:57 10° SSW 15:54:52 29° SSE 15:58:45 10° E visible
03 Mar - 17:31:31 10° WSW 17:36:03 75° SSE 17:40:31 10° E night (unlit)
03 Mar - 19:13:07 10° W 19:17:38 88° N 19:22:06 10° E night (unlit)
03 Mar - 20:54:45 10° W 20:59:05 50° SSW 21:03:21 10° SE night (unlit)
03 Mar - 22:37:24 10° WSW 22:39:53 15° SW 22:42:22 10° S night (unlit)
04 Mar - 14:28:26 10° SSE 14:30:26 13° SE 14:32:26 10° ESE visible
04 Mar - 16:06:51 10° SW 16:11:12 44° SSE 16:15:29 10° E visible
04 Mar - 17:48:03 10° W 17:52:35 89° S 17:57:05 10° E night (unlit)
04 Mar - 19:29:41 10° W 19:34:11 81° SSW 19:38:38 10° ESE night (unlit)
04 Mar - 21:11:26 10° W 21:15:25 33° SSW 21:19:23 10° SSE night (unlit)
05 Mar - 14:43:03 10° SSW 14:46:35 22° SE 14:50:04 10° E visible
05 Mar - 16:23:06 10° WSW 16:27:38 64° SSE 16:32:05 10° E visible
05 Mar - 18:04:37 10° W 18:09:10 86° N 18:13:39 10° E night (unlit)
05 Mar - 19:46:15 10° W 19:50:41 62° SSW 19:55:04 10° ESE night (unlit)
05 Mar - 21:28:23 10° W 21:31:40 20° SW 21:34:56 10° S night (unlit)
06 Mar - 14:58:41 10° SW 15:02:50 35° SSE 15:06:58 10° E visible
06 Mar - 16:39:33 10° WSW 16:44:08 82° SSE 16:48:38 10° E visible
06 Mar - 18:21:12 10° W 18:25:45 88° S 18:30:12 10° E night (unlit)
06 Mar - 20:02:52 10° W 20:07:06 42° SSW 20:11:17 10° SE night (unlit)
06 Mar - 21:46:18 10° WSW 21:47:47 11° SW 21:49:16 10° SSW night (unlit)
07 Mar - 13:35:28 10° S 13:38:20 16° SE 13:41:11 10° E daylight
07 Mar - 15:14:45 10° SW 15:19:13 53° SSE 15:23:37 10° E visible
07 Mar - 16:56:07 10° W 17:00:41 88° N 17:05:11 10° E visible
07 Mar - 18:37:46 10° W 18:42:16 74° SSW 18:46:43 10° ESE night (unlit)
07 Mar - 20:19:37 10° W 20:23:24 27° SW 20:27:09 10° SSE night (unlit)
08 Mar - 13:50:39 10° SSW 13:54:32 27° SE 13:58:22 10° E visible
08 Mar - 15:31:06 10° WSW 15:35:41 72° SSE 15:40:11 10° E visible
08 Mar - 17:12:42 10° W 17:17:16 87° N 17:21:46 10° E visible
08 Mar - 18:54:20 10° W 18:58:45 54° SSW 19:03:05 10° SE night (unlit)
08 Mar - 20:36:48 10° W 20:39:36 16° SW 20:42:22 10° S night (unlit)
